Time,TemperatureF,DewpointF,PressureIn,WindDirection,WindDirectionDegrees,WindSpeedMPH,WindSpeedGustMPH,Humidity,HourlyPrecipIn,Conditions,Clouds,dailyrainin,SoftwareType,DateUTC
2013-06-05 00:01:00,59.7,44.5,30.15,SSE,158,4.6,4.6,57,0.00,CLR,CLR,0.00,WeatherDisplay:10.37,2013-06-05 04:01:00,
2013-06-05 00:03:00,59.5,44.3,30.15,NNE,22,5.8,5.8,57,0.00,CLR,CLR,0.00,WeatherDisplay:10.37,2013-06-05 04:03:00,
2013-06-05 00:06:00,59.5,44.3,30.15,NNE,22,4.6,4.6,57,0.00,CLR,CLR,0.00,WeatherDisplay:10.37,2013-06-05 04:06:00,
2013-06-05 00:11:00,59.4,44.1,30.15,ENE,68,2.6,2.6,57,0.00,CLR,CLR,0.00,WeatherDisplay:10.37,2013-06-05 04:11:00,
2013-06-05 00:16:00,59.2,43.9,30.15,ENE,68,4.6,4.6,57,0.00,CLR,CLR,0.00,WeatherDisplay:10.37,2013-06-05 04:16:00,
2013-06-05 00:21:00,59.0,43.8,30.15,SSE,158,4.6,4.6,57,0.00,CLR,CLR,0.00,WeatherDisplay:10.37,2013-06-05 04:21:00,
2013-06-05 00:27:00,58.8,44.1,30.15,NNW,338,5.8,5.8,58,0.00,CLR,CLR,0.00,WeatherDisplay:10.37,2013-06-05 04:27:00,
2013-06-05 00:32:00,58.6,43.9,30.15,ENE,68,4.6,4.6,58,0.00,CLR,CLR,0.00,WeatherDisplay:10.37,2013-06-05 04:32:00,
2013-06-05 00:37:00,58.5,43.7,30.15,ENE,68,4.6,4.6,58,0.00,CLR,CLR,0.00,WeatherDisplay:10.37,2013-06-05 04:37:00,
2013-06-05 00:43:00,58.5,43.7,30.15,ENE,68,4.9,4.9,58,0.00,CLR,CLR,0.00,WeatherDisplay:10.37,2013-06-05 04:43:00,
2013-06-05 00:48:00,58.3,43.6,30.15,NNW,338,5.8,5.8,58,0.00,CLR,CLR,0.00,WeatherDisplay:10.37,2013-06-05 04:48:00,
2013-06-05 00:53:00,58.1,43.4,30.15,WNW,292,4.3,4.3,58,0.00,CLR,CLR,0.00,WeatherDisplay:10.37,2013-06-05 04:53:00,
2013-06-05 00:58:00,57.9,43.2,30.15,ESE,112,3.5,3.5,58,0.00,CLR,CLR,0.00,WeatherDisplay:10.37,2013-06-05 04:58:00,
2013-06-05 01:03:00,57.7,43.5,30.15,East,90,4.6,4.6,59,0.00,CLR,CLR,0.00,WeatherDisplay:10.37,2013-06-05 05:03:00,
2013-06-05 01:08:00,57.6,43.3,30.15,ENE,68,4.9,4.9,59,0.00,CLR,CLR,0.00,WeatherDisplay:10.37,2013-06-05 05:08:00,
2013-06-05 01:13:00,57.6,43.3,30.15,ENE,68,4.6,4.6,59,0.00,CLR,CLR,0.00,WeatherDisplay:10.37,2013-06-05 05:13:00,
2013-06-05 01:19:00,57.6,42.9,30.15,ENE,68,5.8,5.8,58,0.00,CLR,CLR,0.00,WeatherDisplay:10.37,2013-06-05 05:19:00,
2013-06-05 01:24:00,57.4,43.2,30.15,East,90,4.6,4.6,59,0.00,CLR,CLR,0.00,WeatherDisplay:10.37,2013-06-05 05:24:00,
2013-06-05 01:29:00,57.4,42.7,30.15,NNW,338,8.1,8.1,58,0.00,CLR,CLR,0.00,WeatherDisplay:10.37,2013-06-05 05:29:00,
2013-06-05 01:34:00,57.4,42.7,30.15,ENE,68,4.7,5.4,58,0.00,CLR,CLR,0.00,WeatherDisplay:10.37,2013-06-05 05:34:00,
2013-06-05 01:40:00,57.2,42.5,30.15,WNW,292,4.6,4.7,58,0.00,CLR,CLR,0.00,WeatherDisplay:10.37,2013-06-05 05:40:00,
2013-06-05 01:45:00,57.2,42.5,30.15,NNE,22,3.5,3.5,58,0.00,CLR,CLR,0.00,WeatherDisplay:10.37,2013-06-05 05:45:00,
2013-06-05 01:50:00,57.2,42.5,30.15,ENE,68,5.8,5.8,58,0.00,CLR,CLR,0.00,WeatherDisplay:10.37,2013-06-05 05:50:00,
2013-06-05 01:55:00,57.0,42.8,30.15,NE,45,3.5,3.5,59,0.00,CLR,CLR,0.00,WeatherDisplay:10.37,2013-06-05 05:55:00,
2013-06-05 02:00:00,56.8,42.7,30.15,ENE,68,4.6,4.6,59,0.00,CLR,CLR,0.00,WeatherDisplay:10.37,2013-06-05 06:00:00,
2013-06-05 02:05:00,56.8,42.7,30.15,ENE,68,5.8,5.8,59,0.00,CLR,CLR,0.00,WeatherDisplay:10.37,2013-06-05 06:05:00,
2013-06-05 02:10:00,56.7,42.5,30.12,ENE,68,4.6,4.6,59,0.00,CLR,CLR,0.00,WeatherDisplay:10.37,2013-06-05 06:10:00,
2013-06-05 02:15:00,56.7,42.5,30.12,ENE,68,6.0,6.0,59,0.00,CLR,CLR,0.00,WeatherDisplay:10.37,2013-06-05 06:15:00,
2013-06-05 02:21:00,56.7,42.5,30.12,ENE,68,6.9,6.9,59,0.00,CLR,CLR,0.00,WeatherDisplay:10.37,2013-06-05 06:21:00,
2013-06-05 02:26:00,56.5,42.8,30.12,ENE,68,5.8,5.8,60,0.00,CLR,CLR,0.00,WeatherDisplay:10.37,2013-06-05 06:26:00,
2013-06-05 02:31:00,56.3,42.6,30.12,ENE,68,5.8,5.8,60,0.00,CLR,CLR,0.00,WeatherDisplay:10.37,2013-06-05 06:31:00,
2013-06-05 02:36:00,56.3,43.0,30.12,East,90,5.8,5.8,61,0.00,CLR,CLR,0.00,WeatherDisplay:10.37,2013-06-05 06:36:00,
2013-06-05 02:42:00,56.1,42.8,30.12,ENE,68,5.8,5.8,61,0.00,CLR,CLR,0.00,WeatherDisplay:10.37,2013-06-05 06:42:00,
2013-06-05 02:47:00,56.1,42.8,30.12,NNE,22,2.3,2.4,61,0.00,CLR,CLR,0.00,WeatherDisplay:10.37,2013-06-05 06:47:00,
2013-06-05 02:52:00,56.1,43.3,30.12,ENE,68,4.6,4.6,62,0.00,CLR,CLR,0.00,WeatherDisplay:10.37,2013-06-05 06:52:00,
2013-06-05 02:58:00,55.9,43.1,30.12,NNE,22,4.6,4.6,62,0.00,CLR,CLR,0.00,WeatherDisplay:10.37,2013-06-05 06:58:00,
2013-06-05 03:03:00,55.9,43.5,30.12,ENE,68,5.8,5.8,63,0.00,CLR,CLR,0.00,WeatherDisplay:10.37,2013-06-05 07:03:00,
2013-06-05 03:08:00,55.9,43.5,30.12,ENE,68,4.6,4.6,63,0.00,CLR,CLR,0.00,WeatherDisplay:10.37,2013-06-05 07:08:00,
2013-06-05 03:13:00,55.8,43.3,30.12,ENE,68,3.5,3.5,63,0.00,CLR,CLR,0.00,WeatherDisplay:10.37,2013-06-05 07:13:00,
2013-06-05 03:18:00,55.8,43.3,30.12,ESE,112,4.9,4.9,63,0.00,CLR,CLR,0.00,WeatherDisplay:10.37,2013-06-05 07:18:00,
2013-06-05 03:23:00,55.9,43.5,30.12,ENE,68,6.9,6.9,63,0.00,CLR,CLR,0.00,WeatherDisplay:10.37,2013-06-05 07:23:00,
2013-06-05 03:28:00,55.8,43.8,30.12,ENE,68,3.5,3.5,64,0.00,CLR,CLR,0.00,WeatherDisplay:10.37,2013-06-05 07:28:00,
2013-06-05 03:33:00,55.8,43.8,30.12,ENE,68,5.8,5.8,64,0.00,CLR,CLR,0.00,WeatherDisplay:10.37,2013-06-05 07:33:00,
2013-06-05 03:38:00,55.8,43.8,30.12,East,90,5.4,5.4,64,0.00,CLR,CLR,0.00,WeatherDisplay:10.37,2013-06-05 07:38:00,
2013-06-05 03:44:00,55.8,44.2,30.12,East,90,3.5,3.6,65,0.00,CLR,CLR,0.00,WeatherDisplay:10.37,2013-06-05 07:44:00,
2013-06-05 03:49:00,55.8,44.2,30.12,ENE,68,6.9,6.9,65,0.00,CLR,CLR,0.00,WeatherDisplay:10.37,2013-06-05 07:49:00,
2013-06-05 03:54:00,55.9,43.9,30.12,NE,45,4.6,4.6,64,0.00,CLR,CLR,0.00,WeatherDisplay:10.37,2013-06-05 07:54:00,
2013-06-05 04:00:00,55.9,43.9,30.12,ENE,68,5.8,5.8,64,0.00,CLR,CLR,0.00,WeatherDisplay:10.37,2013-06-05 08:00:00,
2013-06-05 04:05:00,55.9,44.3,30.12,ENE,68,4.6,4.6,65,0.00,CLR,CLR,0.00,WeatherDisplay:10.37,2013-06-05 08:05:00,
2013-06-05 04:10:00,55.8,44.2,30.12,ENE,68,5.8,5.8,65,0.00,CLR,CLR,0.00,WeatherDisplay:10.37,2013-06-05 08:10:00,
2013-06-05 04:15:00,55.8,44.2,30.12,East,90,4.0,4.0,65,0.00,CLR,CLR,0.00,WeatherDisplay:10.37,2013-06-05 08:15:00,
2013-06-05 04:20:00,55.8,44.2,30.12,ESE,112,6.9,6.9,65,0.00,CLR,CLR,0.00,WeatherDisplay:10.37,2013-06-05 08:20:00,
2013-06-05 04:25:00,55.8,44.6,30.12,NNE,22,4.3,4.3,66,0.00,CLR,CLR,0.00,WeatherDisplay:10.37,2013-06-05 08:25:00,
2013-06-05 04:31:00,55.8,44.6,30.12,ENE,68,4.6,4.6,66,0.00,CLR,CLR,0.00,WeatherDisplay:10.37,2013-06-05 08:31:00,
2013-06-05 04:36:00,55.8,44.6,30.12,ENE,68,4.7,4.7,66,0.00,CLR,CLR,0.00,WeatherDisplay:10.37,2013-06-05 08:36:00,
2013-06-05 04:41:00,55.6,44.4,30.12,ENE,68,4.6,4.6,66,0.00,CLR,CLR,0.00,WeatherDisplay:10.37,2013-06-05 08:41:00,
2013-06-05 04:47:00,55.6,44.4,30.12,ESE,112,5.8,5.8,66,0.00,CLR,CLR,0.00,WeatherDisplay:10.37,2013-06-05 08:47:00,
2013-06-05 04:52:00,55.6,44.4,30.12,ESE,112,5.8,5.8,66,0.00,CLR,CLR,0.00,WeatherDisplay:10.37,2013-06-05 08:52:00,
2013-06-05 04:57:00,55.6,44.8,30.12,ENE,68,4.6,4.6,67,0.00,CLR,CLR,0.00,WeatherDisplay:10.37,2013-06-05 08:57:00,
2013-06-05 05:02:00,55.6,44.8,30.12,ENE,68,5.8,5.8,67,0.00,CLR,CLR,0.00,WeatherDisplay:10.37,2013-06-05 09:02:00,
2013-06-05 05:07:00,55.4,44.6,30.12,ENE,68,3.5,3.5,67,0.00,CLR,CLR,0.00,WeatherDisplay:10.37,2013-06-05 09:07:00,
2013-06-05 05:12:00,55.2,44.8,30.12,ENE,68,3.5,3.5,68,0.00,CLR,CLR,0.00,WeatherDisplay:10.37,2013-06-05 09:12:00,
2013-06-05 05:18:00,55.0,45.1,30.12,ENE,68,3.1,3.1,69,0.00,CLR,CLR,0.00,WeatherDisplay:10.37,2013-06-05 09:18:00,
2013-06-05 05:23:00,54.9,45.3,30.12,ENE,68,4.6,4.6,70,0.00,CLR,CLR,0.00,WeatherDisplay:10.37,2013-06-05 09:23:00,
2013-06-05 05:28:00,54.7,45.1,30.12,ENE,68,3.6,3.6,70,0.00,CLR,CLR,0.00,WeatherDisplay:10.37,2013-06-05 09:28:00,
2013-06-05 05:34:00,54.7,45.1,30.12,ENE,68,3.5,3.5,70,0.00,CLR,CLR,0.00,WeatherDisplay:10.37,2013-06-05 09:34:00,
2013-06-05 05:39:00,54.9,45.3,30.12,NNE,22,4.6,4.6,70,0.00,CLR,CLR,0.00,WeatherDisplay:10.37,2013-06-05 09:39:00,
2013-06-05 05:44:00,54.9,45.3,30.12,ESE,112,5.8,5.8,70,0.00,CLR,CLR,0.00,WeatherDisplay:10.37,2013-06-05 09:44:00,
2013-06-05 05:49:00,55.0,45.4,30.12,ENE,68,5.8,5.8,70,0.00,CLR,CLR,0.00,WeatherDisplay:10.37,2013-06-05 09:49:00,
2013-06-05 05:54:00,55.0,45.1,30.12,NNE,22,4.6,4.6,69,0.00,CLR,CLR,0.00,WeatherDisplay:10.37,2013-06-05 09:54:00,
2013-06-05 05:59:00,54.9,45.3,30.12,ENE,68,3.5,3.5,70,0.00,CLR,CLR,0.00,WeatherDisplay:10.37,2013-06-05 09:59:00,
2013-06-05 06:04:00,54.7,45.1,30.12,ENE,68,4.6,4.6,70,0.00,CLR,CLR,0.00,WeatherDisplay:10.37,2013-06-05 10:04:00,
2013-06-05 06:10:00,54.7,45.1,30.12,NNE,22,2.4,2.4,70,0.00,CLR,CLR,0.00,WeatherDisplay:10.37,2013-06-05 10:10:00,
2013-06-05 06:15:00,54.9,45.6,30.12,ENE,68,4.6,4.6,71,0.00,CLR,CLR,0.00,WeatherDisplay:10.37,2013-06-05 10:15:00,
2013-06-05 06:20:00,55.0,45.4,30.12,ENE,68,5.8,5.8,70,0.00,CLR,CLR,0.00,WeatherDisplay:10.37,2013-06-05 10:20:00,
2013-06-05 06:25:00,55.0,45.4,30.09,ESE,112,4.6,4.6,70,0.00,CLR,CLR,0.00,WeatherDisplay:10.37,2013-06-05 10:25:00,
2013-06-05 06:30:00,55.2,45.6,30.09,NW,315,4.6,4.6,70,0.00,CLR,CLR,0.00,WeatherDisplay:10.37,2013-06-05 10:30:00,
2013-06-05 06:36:00,55.4,45.4,30.12,ENE,68,4.6,4.6,69,0.00,CLR,CLR,0.00,WeatherDisplay:10.37,2013-06-05 10:36:00,
2013-06-05 06:41:00,55.6,45.6,30.12,NE,45,3.5,3.5,69,0.00,CLR,CLR,0.00,WeatherDisplay:10.37,2013-06-05 10:41:00,
2013-06-05 06:46:00,56.1,46.1,30.12,ENE,68,3.5,3.5,69,0.00,CLR,CLR,0.00,WeatherDisplay:10.37,2013-06-05 10:46:00,
2013-06-05 06:51:00,56.7,46.2,30.12,ENE,68,4.6,4.6,68,0.00,CLR,CLR,0.00,WeatherDisplay:10.37,2013-06-05 10:51:00,
2013-06-05 06:57:00,56.8,46.4,30.12,NNE,22,4.6,4.6,68,0.00,CLR,CLR,0.00,WeatherDisplay:10.37,2013-06-05 10:57:00,
2013-06-05 07:02:00,57.0,46.2,30.12,ENE,68,5.8,5.8,67,0.00,CLR,CLR,0.00,WeatherDisplay:10.37,2013-06-05 11:02:00,
2013-06-05 07:07:00,57.0,46.6,30.12,East,90,5.8,5.8,68,0.00,CLR,CLR,0.00,WeatherDisplay:10.37,2013-06-05 11:07:00,
2013-06-05 07:12:00,57.2,46.3,30.12,ENE,68,4.6,4.6,67,0.00,CLR,CLR,0.00,WeatherDisplay:10.37,2013-06-05 11:12:00,
2013-06-05 07:17:00,57.6,46.7,30.12,ENE,68,5.8,5.8,67,0.00,CLR,CLR,0.00,WeatherDisplay:10.37,2013-06-05 11:17:00,
2013-06-05 07:22:00,57.6,46.3,30.12,ENE,68,5.8,5.8,66,0.00,CLR,CLR,0.00,WeatherDisplay:10.37,2013-06-05 11:22:00,
2013-06-05 07:27:00,58.1,47.2,30.12,ENE,68,3.8,3.8,67,0.00,CLR,CLR,0.00,WeatherDisplay:10.37,2013-06-05 11:27:00,
2013-06-05 07:32:00,58.6,47.3,30.12,East,90,4.6,4.6,66,0.00,CLR,CLR,0.00,WeatherDisplay:10.37,2013-06-05 11:32:00,
2013-06-05 07:37:00,58.8,47.5,30.12,ENE,68,5.8,5.8,66,0.00,CLR,CLR,0.00,WeatherDisplay:10.37,2013-06-05 11:37:00,
2013-06-05 07:42:00,59.4,47.2,30.12,ENE,68,8.1,8.1,64,0.00,CLR,CLR,0.00,WeatherDisplay:10.37,2013-06-05 11:42:00,
2013-06-05 07:48:00,60.6,48.4,30.12,ESE,112,4.6,4.6,64,0.00,CLR,CLR,0.00,WeatherDisplay:10.37,2013-06-05 11:48:00,
2013-06-05 07:53:00,61.3,47.8,30.12,ENE,68,6.0,6.0,61,0.00,CLR,CLR,0.00,WeatherDisplay:10.37,2013-06-05 11:53:00,
2013-06-05 07:58:00,61.9,47.4,30.12,ENE,68,4.6,4.6,59,0.00,CLR,CLR,0.00,WeatherDisplay:10.37,2013-06-05 11:58:00,
2013-06-05 08:03:00,62.6,48.1,30.12,ESE,112,6.9,6.9,59,0.00,CLR,CLR,0.00,WeatherDisplay:10.37,2013-06-05 12:03:00,
2013-06-05 08:09:00,62.8,47.8,30.09,East,90,5.8,5.8,58,0.00,CLR,CLR,0.00,WeatherDisplay:10.37,2013-06-05 12:09:00,
2013-06-05 08:14:00,63.5,47.5,30.09,ENE,68,6.0,6.0,56,0.00,CLR,CLR,0.00,WeatherDisplay:10.37,2013-06-05 12:14:00,
2013-06-05 08:19:00,63.9,47.9,30.09,ENE,68,9.2,9.2,56,0.00,CLR,CLR,0.00,WeatherDisplay:10.37,2013-06-05 12:19:00,
2013-06-05 08:24:00,64.6,48.0,30.12,East,90,7.1,7.1,55,0.00,CLR,CLR,0.00,WeatherDisplay:10.37,2013-06-05 12:24:00,
2013-06-05 08:29:00,65.7,49.0,30.12,ENE,68,5.9,5.9,55,0.00,CLR,CLR,0.00,WeatherDisplay:10.37,2013-06-05 12:29:00,
2013-06-05 08:34:00,65.8,48.7,30.12,ENE,68,3.5,3.6,54,0.00,CLR,CLR,0.00,WeatherDisplay:10.37,2013-06-05 12:34:00,
2013-06-05 08:39:00,66.2,48.6,30.12,ENE,68,6.9,6.9,53,0.00,CLR,CLR,0.00,WeatherDisplay:10.37,2013-06-05 12:39:00,
2013-06-05 08:44:00,67.3,49.0,30.12,ENE,68,3.5,3.5,52,0.00,CLR,CLR,0.00,WeatherDisplay:10.37,2013-06-05 12:44:00,
2013-06-05 08:50:00,67.5,48.7,30.12,ENE,68,5.8,5.8,51,0.00,CLR,CLR,0.00,WeatherDisplay:10.37,2013-06-05 12:50:00,
2013-06-05 08:55:00,68.5,49.7,30.12,ESE,112,3.5,3.5,51,0.00,CLR,CLR,0.00,WeatherDisplay:10.37,2013-06-05 12:55:00,
2013-06-05 09:00:00,68.2,48.8,30.12,ENE,68,5.8,5.8,50,0.00,CLR,CLR,0.00,WeatherDisplay:10.37,2013-06-05 13:00:00,
2013-06-05 09:05:00,68.4,48.5,30.12,ENE,68,8.1,8.1,49,0.00,CLR,CLR,0.00,WeatherDisplay:10.37,2013-06-05 13:05:00,
2013-06-05 09:11:00,68.9,49.5,30.09,East,90,4.9,4.9,50,0.00,CLR,CLR,0.00,WeatherDisplay:10.37,2013-06-05 13:11:00,
2013-06-05 09:16:00,69.8,49.8,30.09,SSE,158,5.6,5.6,49,0.00,CLR,CLR,0.00,WeatherDisplay:10.37,2013-06-05 13:16:00,
2013-06-05 09:21:00,70.2,49.5,30.09,NNW,338,4.6,4.6,48,0.00,CLR,CLR,0.00,WeatherDisplay:10.37,2013-06-05 13:21:00,
2013-06-05 09:26:00,71.2,50.5,30.09,East,90,3.1,3.1,48,0.00,CLR,CLR,0.00,WeatherDisplay:10.37,2013-06-05 13:26:00,
2013-06-05 09:32:00,72.0,50.0,30.09,ENE,68,7.1,7.1,46,0.00,CLR,CLR,0.00,WeatherDisplay:10.37,2013-06-05 13:32:00,
2013-06-05 09:37:00,71.6,49.7,30.09,ENE,68,6.9,6.9,46,0.00,CLR,CLR,0.00,WeatherDisplay:10.37,2013-06-05 13:37:00,
2013-06-05 09:42:00,71.8,49.9,30.09,SSE,158,3.6,3.6,46,0.00,CLR,CLR,0.00,WeatherDisplay:10.37,2013-06-05 13:42:00,
2013-06-05 09:47:00,73.0,51.0,30.09,East,90,6.2,6.2,46,0.00,CLR,CLR,0.00,WeatherDisplay:10.37,2013-06-05 13:47:00,
2013-06-05 09:53:00,72.3,49.8,30.09,ESE,112,6.2,6.2,45,0.00,CLR,CLR,0.00,WeatherDisplay:10.37,2013-06-05 13:53:00,
2013-06-05 09:58:00,72.3,49.8,30.09,ENE,68,8.5,8.5,45,0.00,CLR,CLR,0.00,WeatherDisplay:10.37,2013-06-05 13:58:00,
2013-06-05 10:03:00,73.4,50.8,30.09,East,90,4.6,4.6,45,0.00,CLR,CLR,0.00,WeatherDisplay:10.37,2013-06-05 14:03:00,
2013-06-05 10:08:00,73.6,50.3,30.12,ESE,112,5.8,5.8,44,0.00,CLR,CLR,0.00,WeatherDisplay:10.37,2013-06-05 14:08:00,
2013-06-05 10:13:00,74.7,51.3,30.12,WNW,292,3.5,3.5,44,0.00,CLR,CLR,0.00,WeatherDisplay:10.37,2013-06-05 14:13:00,
2013-06-05 10:19:00,75.7,51.6,30.12,ENE,68,3.5,3.5,43,0.00,CLR,CLR,0.00,WeatherDisplay:10.37,2013-06-05 14:19:00,
2013-06-05 10:24:00,77.2,52.9,30.12,ENE,68,3.8,3.8,43,0.00,CLR,CLR,0.00,WeatherDisplay:10.37,2013-06-05 14:24:00,
2013-06-05 10:29:00,77.2,52.3,30.12,ESE,112,5.8,5.8,42,0.00,CLR,CLR,0.00,WeatherDisplay:10.37,2013-06-05 14:29:00,
2013-06-05 10:34:00,77.4,52.5,30.12,ENE,68,5.6,5.6,42,0.00,CLR,CLR,0.00,WeatherDisplay:10.37,2013-06-05 14:34:00,
2013-06-05 10:40:00,76.8,52.0,30.09,ESE,112,7.6,7.6,42,0.00,CLR,CLR,0.00,WeatherDisplay:10.37,2013-06-05 14:40:00,
2013-06-05 10:45:00,76.1,50.7,30.09,ENE,68,5.8,5.8,41,0.00,CLR,CLR,0.00,WeatherDisplay:10.37,2013-06-05 14:45:00,
2013-06-05 10:50:00,77.7,52.1,30.09,ENE,68,4.0,4.0,41,0.00,CLR,CLR,0.00,WeatherDisplay:10.37,2013-06-05 14:50:00,
2013-06-05 10:55:00,76.6,50.5,30.09,ESE,112,6.9,6.9,40,0.00,CLR,CLR,0.00,WeatherDisplay:10.37,2013-06-05 14:55:00,
2013-06-05 11:01:00,76.8,51.3,30.09,East,90,7.1,7.1,41,0.00,CLR,CLR,0.00,WeatherDisplay:10.37,2013-06-05 15:01:00,
2013-06-05 11:06:00,77.2,51.0,30.09,ENE,68,6.9,6.9,40,0.00,CLR,CLR,0.00,WeatherDisplay:10.37,2013-06-05 15:06:00,
2013-06-05 11:11:00,76.3,50.8,30.09,ESE,112,6.7,6.7,41,0.00,CLR,CLR,0.00,WeatherDisplay:10.37,2013-06-05 15:11:00,
2013-06-05 11:16:00,76.6,51.2,30.09,NE,45,10.4,10.4,41,0.00,CLR,CLR,0.00,WeatherDisplay:10.37,2013-06-05 15:16:00,
2013-06-05 11:22:00,76.6,51.2,30.06,ENE,68,8.1,8.1,41,0.00,CLR,CLR,0.00,WeatherDisplay:10.37,2013-06-05 15:22:00,
2013-06-05 11:27:00,77.5,52.0,30.06,ESE,112,5.8,5.8,41,0.00,CLR,CLR,0.00,WeatherDisplay:10.37,2013-06-05 15:27:00,
2013-06-05 11:32:00,77.9,51.6,30.06,ESE,112,8.1,8.1,40,0.00,CLR,CLR,0.00,WeatherDisplay:10.37,2013-06-05 15:32:00,
2013-06-05 11:37:00,78.8,52.4,30.06,East,90,8.1,8.1,40,0.00,CLR,CLR,0.00,WeatherDisplay:10.37,2013-06-05 15:37:00,
2013-06-05 11:42:00,77.9,50.9,30.06,ESE,112,8.1,8.1,39,0.00,CLR,CLR,0.00,WeatherDisplay:10.37,2013-06-05 15:42:00,
2013-06-05 11:47:00,78.6,52.3,30.06,ESE,112,8.1,8.1,40,0.00,CLR,CLR,0.00,WeatherDisplay:10.37,2013-06-05 15:47:00,
2013-06-05 11:53:00,78.8,52.4,30.06,ENE,68,8.1,8.1,40,0.00,CLR,CLR,0.00,WeatherDisplay:10.37,2013-06-05 15:53:00,
2013-06-05 11:58:00,79.7,52.5,30.06,NE,45,6.0,6.0,39,0.00,CLR,CLR,0.00,WeatherDisplay:10.37,2013-06-05 15:58:00,
2013-06-05 12:03:00,78.6,52.3,30.06,ENE,68,5.8,5.8,40,0.00,CLR,CLR,0.00,WeatherDisplay:10.37,2013-06-05 16:03:00,
2013-06-05 12:08:00,79.3,52.2,30.06,East,90,3.5,3.8,39,0.00,CLR,CLR,0.00,WeatherDisplay:10.37,2013-06-05 16:08:00,
2013-06-05 12:13:00,80.8,52.1,30.06,ENE,68,5.8,5.8,37,0.00,CLR,CLR,0.00,WeatherDisplay:10.37,2013-06-05 16:13:00,
2013-06-05 12:19:00,80.1,51.4,30.06,ESE,112,8.1,8.1,37,0.00,CLR,CLR,0.00,WeatherDisplay:10.37,2013-06-05 16:19:00,
2013-06-05 12:24:00,80.2,51.6,30.03,ENE,68,6.9,6.9,37,0.00,CLR,CLR,0.00,WeatherDisplay:10.37,2013-06-05 16:24:00,
2013-06-05 12:29:00,80.1,50.7,30.03,ENE,68,8.1,8.1,36,0.00,CLR,CLR,0.00,WeatherDisplay:10.37,2013-06-05 16:29:00,
2013-06-05 12:34:00,79.7,51.1,30.03,ESE,112,8.1,8.1,37,0.00,CLR,CLR,0.00,WeatherDisplay:10.37,2013-06-05 16:34:00,
2013-06-05 12:39:00,80.6,52.6,30.06,ESE,112,3.5,3.5,38,0.00,CLR,CLR,0.00,WeatherDisplay:10.37,2013-06-05 16:39:00,
2013-06-05 12:44:00,80.1,50.7,30.06,ENE,68,6.9,6.9,36,0.00,CLR,CLR,0.00,WeatherDisplay:10.37,2013-06-05 16:44:00,
2013-06-05 12:50:00,80.8,50.6,30.06,ENE,68,5.8,5.8,35,0.00,CLR,CLR,0.00,WeatherDisplay:10.37,2013-06-05 16:50:00,
2013-06-05 12:55:00,80.8,49.0,30.06,ENE,68,6.9,6.9,33,0.00,CLR,CLR,0.00,WeatherDisplay:10.37,2013-06-05 16:55:00,
2013-06-05 13:00:00,81.9,51.5,30.06,NNE,22,5.8,5.8,35,0.00,CLR,CLR,0.00,WeatherDisplay:10.37,2013-06-05 17:00:00,
2013-06-05 13:05:00,84.6,53.9,30.06,ENE,68,3.5,3.5,35,0.00,CLR,CLR,0.00,WeatherDisplay:10.37,2013-06-05 17:05:00,
2013-06-05 13:10:00,84.9,54.2,30.06,NNE,22,3.5,3.5,35,0.00,CLR,CLR,0.00,WeatherDisplay:10.37,2013-06-05 17:10:00,
2013-06-05 13:15:00,84.6,53.1,30.06,East,90,5.8,5.8,34,0.00,CLR,CLR,0.00,WeatherDisplay:10.37,2013-06-05 17:15:00,
2013-06-05 13:21:00,82.9,52.5,30.03,ESE,112,8.1,8.1,35,0.00,CLR,CLR,0.00,WeatherDisplay:10.37,2013-06-05 17:21:00,
2013-06-05 13:26:00,82.8,53.1,30.03,SSE,158,4.7,4.7,36,0.00,CLR,CLR,0.00,WeatherDisplay:10.37,2013-06-05 17:26:00,
2013-06-05 13:31:00,84.0,54.9,30.03,SSE,158,3.5,3.5,37,0.00,CLR,CLR,0.00,WeatherDisplay:10.37,2013-06-05 17:31:00,
2013-06-05 13:37:00,82.8,53.1,30.06,ESE,112,8.1,8.1,36,0.00,CLR,CLR,0.00,WeatherDisplay:10.37,2013-06-05 17:37:00,
2013-06-05 13:42:00,83.5,53.7,30.06,ESE,112,5.8,5.8,36,0.00,CLR,CLR,0.00,WeatherDisplay:10.37,2013-06-05 17:42:00,
2013-06-05 13:47:00,83.8,54.0,30.06,East,90,5.8,5.8,36,0.00,CLR,CLR,0.00,WeatherDisplay:10.37,2013-06-05 17:47:00,
2013-06-05 13:52:00,85.5,54.7,30.03,East,90,2.3,2.4,35,0.00,CLR,CLR,0.00,WeatherDisplay:10.37,2013-06-05 17:52:00,
2013-06-05 13:57:00,85.8,55.0,30.03,WNW,292,4.6,4.6,35,0.00,CLR,CLR,0.00,WeatherDisplay:10.37,2013-06-05 17:57:00,
2013-06-05 14:02:00,84.6,53.9,30.03,SE,135,5.9,5.9,35,0.00,CLR,CLR,0.00,WeatherDisplay:10.37,2013-06-05 18:02:00,
2013-06-05 14:07:00,87.1,56.1,30.03,WNW,292,2.3,2.3,35,0.00,CLR,CLR,0.00,WeatherDisplay:10.37,2013-06-05 18:07:00,
2013-06-05 14:13:00,87.6,55.8,30.03,East,90,5.8,5.8,34,0.00,CLR,CLR,0.00,WeatherDisplay:10.37,2013-06-05 18:13:00,
2013-06-05 14:18:00,86.9,56.0,30.03,ESE,112,8.1,8.1,35,0.00,CLR,CLR,0.00,WeatherDisplay:10.37,2013-06-05 18:18:00,
2013-06-05 14:23:00,84.9,55.0,30.03,SSW,202,3.5,3.5,36,0.00,CLR,CLR,0.00,WeatherDisplay:10.37,2013-06-05 18:23:00,
2013-06-05 14:28:00,85.1,54.4,30.03,ESE,112,3.6,3.6,35,0.00,CLR,CLR,0.00,WeatherDisplay:10.37,2013-06-05 18:28:00,
2013-06-05 14:33:00,87.8,57.5,30.03,ENE,68,2.3,2.3,36,0.00,CLR,CLR,0.00,WeatherDisplay:10.37,2013-06-05 18:33:00,
2013-06-05 14:38:00,87.3,55.5,30.03,ENE,68,1.4,1.4,34,0.00,CLR,CLR,0.00,WeatherDisplay:10.37,2013-06-05 18:38:00,
2013-06-05 14:44:00,89.1,57.0,30.03,WNW,292,4.6,4.6,34,0.00,CLR,CLR,0.00,WeatherDisplay:10.37,2013-06-05 18:44:00,
2013-06-05 14:49:00,88.7,56.7,30.03,ESE,112,2.6,2.9,34,0.00,CLR,CLR,0.00,WeatherDisplay:10.37,2013-06-05 18:49:00,
2013-06-05 14:54:00,86.7,55.0,30.03,ESE,112,3.5,3.5,34,0.00,CLR,CLR,0.00,WeatherDisplay:10.37,2013-06-05 18:54:00,
2013-06-05 14:59:00,88.0,56.9,30.03,ENE,68,2.3,2.3,35,0.00,CLR,CLR,0.00,WeatherDisplay:10.37,2013-06-05 18:59:00,
2013-06-05 15:04:00,88.2,56.3,30.03,ENE,68,8.1,8.1,34,0.00,CLR,CLR,0.00,WeatherDisplay:10.37,2013-06-05 19:04:00,
2013-06-05 15:09:00,89.4,57.4,30.03,WNW,292,1.4,1.4,34,0.00,CLR,CLR,0.00,WeatherDisplay:10.37,2013-06-05 19:09:00,
2013-06-05 15:15:00,89.6,57.5,30.03,ESE,112,3.5,3.5,34,0.00,CLR,CLR,0.00,WeatherDisplay:10.37,2013-06-05 19:15:00,
2013-06-05 15:20:00,89.8,56.8,30.03,ENE,68,5.6,5.6,33,0.00,CLR,CLR,0.00,WeatherDisplay:10.37,2013-06-05 19:20:00,
2013-06-05 15:25:00,89.4,56.5,30.00,NNE,22,3.5,3.5,33,0.00,CLR,CLR,0.00,WeatherDisplay:10.37,2013-06-05 19:25:00,
2013-06-05 15:30:00,88.9,56.9,30.00,NE,45,2.9,2.9,34,0.00,CLR,CLR,0.00,WeatherDisplay:10.37,2013-06-05 19:30:00,
2013-06-05 15:35:00,89.2,57.2,30.00,NE,45,2.3,2.3,34,0.00,CLR,CLR,0.00,WeatherDisplay:10.37,2013-06-05 19:35:00,
2013-06-05 15:40:00,90.1,57.2,30.00,ESE,112,2.3,2.3,33,0.00,CLR,CLR,0.00,WeatherDisplay:10.37,2013-06-05 19:40:00,
2013-06-05 15:46:00,88.5,55.7,30.00,ESE,112,4.6,4.6,33,0.00,CLR,CLR,0.00,WeatherDisplay:10.37,2013-06-05 19:46:00,
2013-06-05 15:51:00,88.3,55.6,30.00,SSW,202,4.6,4.6,33,0.00,CLR,CLR,0.00,WeatherDisplay:10.37,2013-06-05 19:51:00,
2013-06-05 15:56:00,89.1,56.2,30.00,SSW,202,3.6,3.6,33,0.00,CLR,CLR,0.00,WeatherDisplay:10.37,2013-06-05 19:56:00,
2013-06-05 16:01:00,89.8,56.8,30.00,NNW,338,2.4,2.4,33,0.00,CLR,CLR,0.00,WeatherDisplay:10.37,2013-06-05 20:01:00,
2013-06-05 16:07:00,88.0,56.1,30.00,ESE,112,3.5,3.5,34,0.00,CLR,CLR,0.00,WeatherDisplay:10.37,2013-06-05 20:07:00,
2013-06-05 16:12:00,87.3,55.5,30.00,WNW,292,1.4,0.0,34,0.00,CLR,CLR,0.00,WeatherDisplay:10.37,2013-06-05 20:12:00,
2013-06-05 16:17:00,82.4,52.0,30.00,SSE,158,5.8,5.8,35,0.00,CLR,CLR,0.00,WeatherDisplay:10.37,2013-06-05 20:17:00,
2013-06-05 16:22:00,83.7,53.9,30.00,ESE,112,3.5,3.5,36,0.00,CLR,CLR,0.00,WeatherDisplay:10.37,2013-06-05 20:22:00,
2013-06-05 16:27:00,81.7,52.1,30.00,SSE,158,3.5,3.6,36,0.00,CLR,CLR,0.00,WeatherDisplay:10.37,2013-06-05 20:27:00,
2013-06-05 16:32:00,81.3,53.3,30.00,ENE,68,4.6,4.6,38,0.00,CLR,CLR,0.00,WeatherDisplay:10.37,2013-06-05 20:32:00,
2013-06-05 16:37:00,81.3,53.3,30.00,ESE,112,4.6,4.6,38,0.00,CLR,CLR,0.00,WeatherDisplay:10.37,2013-06-05 20:37:00,
2013-06-05 16:42:00,83.3,55.8,30.00,SSE,158,2.3,2.3,39,0.00,CLR,CLR,0.00,WeatherDisplay:10.37,2013-06-05 20:42:00,
2013-06-05 16:47:00,84.2,55.1,30.00,ESE,112,3.1,3.1,37,0.00,CLR,CLR,0.00,WeatherDisplay:10.37,2013-06-05 20:47:00,
2013-06-05 16:53:00,82.8,53.8,30.00,ESE,112,4.7,4.7,37,0.00,CLR,CLR,0.00,WeatherDisplay:10.37,2013-06-05 20:53:00,
2013-06-05 16:58:00,84.4,55.3,30.00,ESE,112,5.8,5.8,37,0.00,CLR,CLR,0.00,WeatherDisplay:10.37,2013-06-05 20:58:00,
2013-06-05 17:03:00,86.2,56.1,30.00,ENE,68,3.8,3.8,36,0.00,CLR,CLR,0.00,WeatherDisplay:10.37,2013-06-05 21:03:00,
2013-06-05 17:08:00,87.4,56.4,30.00,ESE,112,2.9,2.9,35,0.00,CLR,CLR,0.00,WeatherDisplay:10.37,2013-06-05 21:08:00,
2013-06-05 17:13:00,85.1,54.4,30.00,ESE,112,3.5,3.5,35,0.00,CLR,CLR,0.00,WeatherDisplay:10.37,2013-06-05 21:13:00,
2013-06-05 17:18:00,84.4,53.7,30.00,ESE,112,3.8,0.0,35,0.00,CLR,CLR,0.00,WeatherDisplay:10.37,2013-06-05 21:18:00,
2013-06-05 17:23:00,82.8,53.8,29.97,East,90,3.5,3.5,37,0.00,CLR,CLR,0.00,WeatherDisplay:10.37,2013-06-05 21:23:00,
2013-06-05 17:28:00,84.6,55.4,29.97,WSW,248,5.8,5.8,37,0.00,CLR,CLR,0.00,WeatherDisplay:10.37,2013-06-05 21:28:00,
2013-06-05 17:33:00,86.2,55.3,29.97,NNE,22,2.6,2.6,35,0.00,CLR,CLR,0.00,WeatherDisplay:10.37,2013-06-05 21:33:00,
2013-06-05 17:39:00,87.4,57.2,29.97,NNE,22,5.8,5.8,36,0.00,CLR,CLR,0.00,WeatherDisplay:10.37,2013-06-05 21:39:00,
2013-06-05 17:44:00,85.1,55.1,29.97,ESE,112,10.4,10.4,36,0.00,CLR,CLR,0.00,WeatherDisplay:10.37,2013-06-05 21:44:00,
2013-06-05 17:49:00,84.7,56.3,29.97,ENE,68,4.6,4.6,38,0.00,CLR,CLR,0.00,WeatherDisplay:10.37,2013-06-05 21:49:00,
2013-06-05 17:54:00,84.6,55.4,29.97,East,90,5.8,5.8,37,0.00,CLR,CLR,0.00,WeatherDisplay:10.37,2013-06-05 21:54:00,
2013-06-05 17:59:00,84.4,54.5,29.97,East,90,5.8,5.8,36,0.00,CLR,CLR,0.00,WeatherDisplay:10.37,2013-06-05 21:59:00,
2013-06-05 18:04:00,83.8,55.5,29.97,ENE,68,4.0,4.0,38,0.00,CLR,CLR,0.00,WeatherDisplay:10.37,2013-06-05 22:04:00,
2013-06-05 18:10:00,84.2,55.1,29.97,ENE,68,4.6,4.6,37,0.00,CLR,CLR,0.00,WeatherDisplay:10.37,2013-06-05 22:10:00,
2013-06-05 18:15:00,84.2,55.8,29.97,NNE,22,4.6,4.6,38,0.00,CLR,CLR,0.00,WeatherDisplay:10.37,2013-06-05 22:15:00,
2013-06-05 18:20:00,84.2,55.8,29.97,ESE,112,5.8,5.8,38,0.00,CLR,CLR,0.00,WeatherDisplay:10.37,2013-06-05 22:20:00,
2013-06-05 18:25:00,83.5,55.2,29.97,SSW,202,3.5,3.5,38,0.00,CLR,CLR,0.00,WeatherDisplay:10.37,2013-06-05 22:25:00,
2013-06-05 18:30:00,83.1,54.9,29.97,ENE,68,2.3,2.3,38,0.00,CLR,CLR,0.00,WeatherDisplay:10.37,2013-06-05 22:30:00,
2013-06-05 18:35:00,82.0,54.6,29.97,ESE,112,5.8,5.8,39,0.00,CLR,CLR,0.00,WeatherDisplay:10.37,2013-06-05 22:35:00,
2013-06-05 18:40:00,81.1,54.5,29.94,ENE,68,3.5,3.5,40,0.00,CLR,CLR,0.00,WeatherDisplay:10.37,2013-06-05 22:40:00,
2013-06-05 18:45:00,81.5,54.8,29.94,WSW,248,4.6,4.6,40,0.00,CLR,CLR,0.00,WeatherDisplay:10.37,2013-06-05 22:45:00,
2013-06-05 18:50:00,81.0,54.4,29.94,ESE,112,2.3,2.3,40,0.00,CLR,CLR,0.00,WeatherDisplay:10.37,2013-06-05 22:50:00,
2013-06-05 18:56:00,80.8,54.9,29.94,NNE,22,1.4,1.4,41,0.00,CLR,CLR,0.00,WeatherDisplay:10.37,2013-06-05 22:56:00,
2013-06-05 19:01:00,80.6,54.7,29.94,ENE,68,3.5,3.5,41,0.00,CLR,CLR,0.00,WeatherDisplay:10.37,2013-06-05 23:01:00,
2013-06-05 19:06:00,79.9,54.1,29.94,ENE,68,3.5,3.5,41,0.00,CLR,CLR,0.00,WeatherDisplay:10.37,2013-06-05 23:06:00,
2013-06-05 19:11:00,79.9,54.7,29.94,ESE,112,4.6,4.6,42,0.00,CLR,CLR,0.00,WeatherDisplay:10.37,2013-06-05 23:11:00,
2013-06-05 19:17:00,79.7,54.6,29.94,WNW,292,8.1,8.1,42,0.00,CLR,CLR,0.00,WeatherDisplay:10.37,2013-06-05 23:17:00,
2013-06-05 19:22:00,80.1,54.9,29.94,East,90,4.6,4.6,42,0.00,CLR,CLR,0.00,WeatherDisplay:10.37,2013-06-05 23:22:00,
2013-06-05 19:27:00,80.2,55.1,29.94,ENE,68,4.6,4.6,42,0.00,CLR,CLR,0.00,WeatherDisplay:10.37,2013-06-05 23:27:00,
2013-06-05 19:32:00,80.4,55.9,29.94,ENE,68,3.5,3.5,43,0.00,CLR,CLR,0.00,WeatherDisplay:10.37,2013-06-05 23:32:00,
2013-06-05 19:37:00,80.2,55.7,29.94,ENE,68,2.6,2.6,43,0.00,CLR,CLR,0.00,WeatherDisplay:10.37,2013-06-05 23:37:00,
2013-06-05 19:43:00,79.7,55.2,29.94,ENE,68,4.6,4.6,43,0.00,CLR,CLR,0.00,WeatherDisplay:10.37,2013-06-05 23:43:00,
2013-06-05 19:48:00,79.3,54.9,29.94,ENE,68,4.6,4.6,43,0.00,CLR,CLR,0.00,WeatherDisplay:10.37,2013-06-05 23:48:00,
2013-06-05 19:53:00,78.8,54.4,29.94,NNE,22,4.6,4.6,43,0.00,CLR,CLR,0.00,WeatherDisplay:10.37,2013-06-05 23:53:00,
2013-06-05 19:58:00,78.3,54.6,29.94,ENE,68,2.3,2.3,44,0.00,CLR,CLR,0.00,WeatherDisplay:10.37,2013-06-05 23:58:00,
2013-06-05 20:03:00,77.7,54.7,29.94,ENE,68,2.3,2.3,45,0.00,CLR,CLR,0.00,WeatherDisplay:10.37,2013-06-06 00:03:00,
2013-06-05 20:09:00,77.2,54.2,29.94,NNE,22,2.3,2.3,45,0.00,CLR,CLR,0.00,WeatherDisplay:10.37,2013-06-06 00:09:00,
2013-06-05 20:14:00,76.8,54.5,29.94,ENE,68,2.3,2.3,46,0.00,CLR,CLR,0.00,WeatherDisplay:10.37,2013-06-06 00:14:00,
2013-06-05 20:19:00,76.3,54.6,29.94,ENE,68,2.3,2.3,47,0.00,CLR,CLR,0.00,WeatherDisplay:10.37,2013-06-06 00:19:00,
2013-06-05 20:24:00,75.7,54.7,29.94,NNE,22,1.2,1.4,48,0.00,CLR,CLR,0.00,WeatherDisplay:10.37,2013-06-06 00:24:00,
2013-06-05 20:29:00,75.4,54.3,29.94,ENE,68,2.3,2.3,48,0.00,CLR,CLR,0.00,WeatherDisplay:10.37,2013-06-06 00:29:00,
2013-06-05 20:34:00,75.0,54.6,29.94,ENE,68,0.0,0.0,49,0.00,CLR,CLR,0.00,WeatherDisplay:10.37,2013-06-06 00:34:00,
2013-06-05 20:40:00,74.7,54.8,29.94,ENE,68,1.2,0.0,50,0.00,CLR,CLR,0.00,WeatherDisplay:10.37,2013-06-06 00:40:00,
2013-06-05 20:45:00,74.3,55.0,29.94,ENE,68,0.0,0.0,51,0.00,CLR,CLR,0.00,WeatherDisplay:10.37,2013-06-06 00:45:00,
2013-06-05 20:50:00,73.8,54.5,29.94,ENE,68,0.0,0.0,51,0.00,CLR,CLR,0.00,WeatherDisplay:10.37,2013-06-06 00:50:00,
2013-06-05 20:55:00,73.4,54.7,29.94,ENE,68,1.4,0.0,52,0.00,CLR,CLR,0.00,WeatherDisplay:10.37,2013-06-06 00:55:00,
2013-06-05 21:00:00,72.9,54.7,29.94,NE,45,1.2,0.0,53,0.00,CLR,CLR,0.00,WeatherDisplay:10.37,2013-06-06 01:00:00,
2013-06-05 21:06:00,72.7,55.1,29.94,ENE,68,0.0,0.0,54,0.00,CLR,CLR,0.00,WeatherDisplay:10.37,2013-06-06 01:06:00,
2013-06-05 21:11:00,72.5,55.4,29.94,ENE,68,1.2,1.2,55,0.00,CLR,CLR,0.00,WeatherDisplay:10.37,2013-06-06 01:11:00,
2013-06-05 21:16:00,72.1,55.6,29.94,ENE,68,0.9,0.0,56,0.00,CLR,CLR,0.00,WeatherDisplay:10.37,2013-06-06 01:16:00,
2013-06-05 21:21:00,72.1,56.5,29.94,ENE,68,3.5,3.5,58,0.00,CLR,CLR,0.00,WeatherDisplay:10.37,2013-06-06 01:21:00,
2013-06-05 21:27:00,72.0,56.4,29.94,NNE,22,2.3,2.3,58,0.00,CLR,CLR,0.00,WeatherDisplay:10.37,2013-06-06 01:27:00,
2013-06-05 21:32:00,72.0,56.8,29.94,ENE,68,3.5,3.5,59,0.00,CLR,CLR,0.00,WeatherDisplay:10.37,2013-06-06 01:32:00,
2013-06-05 21:37:00,71.8,56.7,29.94,ENE,68,2.3,2.3,59,0.00,CLR,CLR,0.00,WeatherDisplay:10.37,2013-06-06 01:37:00,
2013-06-05 21:42:00,71.6,57.0,29.94,ENE,68,2.4,2.4,60,0.00,CLR,CLR,0.00,WeatherDisplay:10.37,2013-06-06 01:42:00,
2013-06-05 21:47:00,71.4,57.3,29.94,ENE,68,2.9,2.9,61,0.00,CLR,CLR,0.00,WeatherDisplay:10.37,2013-06-06 01:47:00,
2013-06-05 21:52:00,71.4,57.3,29.94,ENE,68,2.3,2.3,61,0.00,CLR,CLR,0.00,WeatherDisplay:10.37,2013-06-06 01:52:00,
2013-06-05 21:57:00,71.2,57.5,29.94,ESE,112,3.5,3.5,62,0.00,CLR,CLR,0.00,WeatherDisplay:10.37,2013-06-06 01:57:00,
2013-06-05 22:02:00,71.1,57.4,29.94,ENE,68,2.3,2.4,62,0.00,CLR,CLR,0.00,WeatherDisplay:10.37,2013-06-06 02:02:00,
2013-06-05 22:08:00,70.9,57.7,29.94,ENE,68,2.3,2.3,63,0.00,CLR,CLR,0.00,WeatherDisplay:10.37,2013-06-06 02:08:00,
2013-06-05 22:13:00,70.9,57.7,29.94,East,90,2.6,2.6,63,0.00,CLR,CLR,0.00,WeatherDisplay:10.37,2013-06-06 02:13:00,
2013-06-05 22:18:00,70.9,57.7,29.94,ENE,68,2.3,2.3,63,0.00,CLR,CLR,0.00,WeatherDisplay:10.37,2013-06-06 02:18:00,
2013-06-05 22:23:00,70.9,57.7,29.94,ENE,68,4.9,4.9,63,0.00,CLR,CLR,0.00,WeatherDisplay:10.37,2013-06-06 02:23:00,
2013-06-05 22:28:00,70.9,58.1,29.94,ENE,68,3.5,3.5,64,0.00,CLR,CLR,0.00,WeatherDisplay:10.37,2013-06-06 02:28:00,
2013-06-05 22:33:00,70.9,58.1,29.94,ENE,68,4.6,4.6,64,0.00,CLR,CLR,0.00,WeatherDisplay:10.37,2013-06-06 02:33:00,
2013-06-05 22:38:00,70.9,58.1,29.94,ENE,68,3.5,3.5,64,0.00,CLR,CLR,0.00,WeatherDisplay:10.37,2013-06-06 02:38:00,
2013-06-05 22:44:00,70.9,58.1,29.94,ENE,68,3.5,3.5,64,0.00,CLR,CLR,0.00,WeatherDisplay:10.37,2013-06-06 02:44:00,
2013-06-05 22:49:00,70.7,57.9,29.94,SSE,158,1.2,0.0,64,0.00,CLR,CLR,0.00,WeatherDisplay:10.37,2013-06-06 02:49:00,
2013-06-05 22:54:00,70.7,57.5,29.94,ESE,112,2.3,2.3,63,0.00,CLR,CLR,0.00,WeatherDisplay:10.37,2013-06-06 02:54:00,
2013-06-05 22:59:00,70.5,57.8,29.94,SSE,158,0.0,0.0,64,0.00,CLR,CLR,0.00,WeatherDisplay:10.37,2013-06-06 02:59:00,
2013-06-05 23:04:00,70.5,57.3,29.94,ESE,112,0.0,0.0,63,0.00,CLR,CLR,0.00,WeatherDisplay:10.37,2013-06-06 03:04:00,
2013-06-05 23:10:00,70.3,57.1,29.94,ENE,68,2.3,2.3,63,0.00,CLR,CLR,0.00,WeatherDisplay:10.37,2013-06-06 03:10:00,
2013-06-05 23:15:00,70.3,57.6,29.94,ESE,112,1.2,0.0,64,0.00,CLR,CLR,0.00,WeatherDisplay:10.37,2013-06-06 03:15:00,
2013-06-05 23:20:00,70.2,57.4,29.94,ENE,68,2.3,2.3,64,0.00,CLR,CLR,0.00,WeatherDisplay:10.37,2013-06-06 03:20:00,
2013-06-05 23:25:00,70.2,57.8,29.94,NNE,22,1.2,1.2,65,0.00,CLR,CLR,0.00,WeatherDisplay:10.37,2013-06-06 03:25:00,
2013-06-05 23:30:00,70.3,58.0,29.94,ENE,68,2.3,2.4,65,0.00,CLR,CLR,0.00,WeatherDisplay:10.37,2013-06-06 03:30:00,
2013-06-05 23:36:00,70.3,58.4,29.94,ESE,112,3.5,3.5,66,0.00,CLR,CLR,0.00,WeatherDisplay:10.37,2013-06-06 03:36:00,
2013-06-05 23:41:00,70.2,58.3,29.94,ENE,68,2.4,2.4,66,0.00,CLR,CLR,0.00,WeatherDisplay:10.37,2013-06-06 03:41:00,
2013-06-05 23:46:00,70.2,58.3,29.94,ENE,68,3.5,3.5,66,0.00,CLR,CLR,0.00,WeatherDisplay:10.37,2013-06-06 03:46:00,
2013-06-05 23:51:00,70.0,58.5,29.94,ENE,68,2.3,2.3,67,0.00,CLR,CLR,0.00,WeatherDisplay:10.37,2013-06-06 03:51:00,
2013-06-05 23:57:00,70.0,58.5,29.94,ENE,68,3.5,3.5,67,0.00,CLR,CLR,0.00,WeatherDisplay:10.37,2013-06-06 03:57:00,